Data supplied by UK-AIR on 6/5/2023
All Data GMT hour ending 
Status: R =Ratified P=Provisional,P*=As supplied
,,Grangemouth,,,,,,,,,,,,,,,,,,,,,,,
Date,time,"PM<sub>10</sub> particulate matter (Hourly measured)",status,unit,"Nitric oxide",status,unit,"Nitrogen dioxide",status,unit,"Nitrogen oxides as nitrogen dioxide",status,unit,"PM<sub>2.5</sub> particulate matter (Hourly measured)",status,unit,"Sulphur dioxide",status,unit
 
01-01-2022,01:00,67.634,R,ugm-3 (Ref.eq),,,,,,,,,,124.000,R,ugm-3 (BAM),,,
01-01-2022,02:00,5.797,R,ugm-3 (Ref.eq),,,,,,,,,,3.000,R,ugm-3 (BAM),,,
01-01-2022,03:00,5.797,R,ugm-3 (Ref.eq),,,,,,,,,,3.000,R,ugm-3 (BAM),,,
01-01-2022,04:00,2.899,R,ugm-3 (Ref.eq),,,,,,,,,,3.000,R,ugm-3 (BAM),,,
01-01-2022,05:00,15.459,R,ugm-3 (Ref.eq),,,,,,,,,,6.000,R,ugm-3 (BAM),,,
01-01-2022,06:00,18.358,R,ugm-3 (Ref.eq),,,,,,,,,,11.000,R,ugm-3 (BAM),,,
01-01-2022,07:00,22.223,R,ugm-3 (Ref.eq),,,,,,,,,,15.000,R,ugm-3 (BAM),,,
01-01-2022,08:00,22.223,R,ugm-3 (Ref.eq),,,,,,,,,,12.000,R,ugm-3 (BAM),,,
01-01-2022,09:00,24.155,R,ugm-3 (Ref.eq),,,,,,,,,,17.000,R,ugm-3 (BAM),,,
01-01-2022,10:00,23.189,R,ugm-3 (Ref.eq),,,,,,,,,,13.000,R,ugm-3 (BAM),,,
01-01-2022,11:00,26.087,R,ugm-3 (Ref.eq),,,,,,,,,,12.000,R,ugm-3 (BAM),,,
01-01-2022,12:00,22.223,R,ugm-3 (Ref.eq),,,,,,,,,,15.000,R,ugm-3 (BAM),,,
01-01-2022,13:00,17.392,R,ugm-3 (Ref.eq),,,,,,,,,,12.000,R,ugm-3 (BAM),,,
01-01-2022,14:00,22.223,R,ugm-3 (Ref.eq),,,,,,,,,,10.000,R,ugm-3 (BAM),,,
01-01-2022,15:00,22.223,R,ugm-3 (Ref.eq),,,,,,,,,,12.000,R,ugm-3 (BAM),,,
01-01-2022,16:00,23.189,R,ugm-3 (Ref.eq),,,,,,,,,,14.000,R,ugm-3 (BAM),,,
01-01-2022,17:00,16.425,R,ugm-3 (Ref.eq),,,,,,,,,,11.000,R,ugm-3 (BAM),,,
01-01-2022,18:00,15.459,R,ugm-3 (Ref.eq),,,,,,,,,,8.000,R,ugm-3 (BAM),,,
01-01-2022,19:00,,,,,,,,,,,,,6.000,R,ugm-3 (BAM),,,
01-01-2022,20:00,2.899,R,ugm-3 (Ref.eq),,,,,,,,,,6.000,R,ugm-3 (BAM),,,
01-01-2022,21:00,3.865,R,ugm-3 (Ref.eq),,,,,,,,,,8.000,R,ugm-3 (BAM),,,
01-01-2022,22:00,8.696,R,ugm-3 (Ref.eq),,,,,,,,,,6.000,R,ugm-3 (BAM),,,
01-01-2022,23:00,12.561,R,ugm-3 (Ref.eq),,,,,,,,,,6.000,R,ugm-3 (BAM),,,
01-01-2022,24:00,9.662,R,ugm-3 (Ref.eq),,,,,,,,,,9.000,R,ugm-3 (BAM),,,
02-01-2022,01:00,9.662,R,ugm-3 (Ref.eq),,,,,,,,,,12.000,R,ugm-3 (BAM),,,
02-01-2022,02:00,14.493,R,ugm-3 (Ref.eq),,,,,,,,,,8.000,R,ugm-3 (BAM),,,
02-01-2022,03:00,11.594,R,ugm-3 (Ref.eq),,,,,,,,,,5.000,R,ugm-3 (BAM),,,
02-01-2022,04:00,9.662,R,ugm-3 (Ref.eq),,,,,,,,,,9.000,R,ugm-3 (BAM),,,
02-01-2022,05:00,9.662,R,ugm-3 (Ref.eq),,,,,,,,,,6.000,R,ugm-3 (BAM),,,
02-01-2022,06:00,9.662,R,ugm-3 (Ref.eq),,,,,,,,,,3.000,R,ugm-3 (BAM),,,
02-01-2022,07:00,8.696,R,ugm-3 (Ref.eq),,,,,,,,,,2.000,R,ugm-3 (BAM),,,
02-01-2022,08:00,13.527,R,ugm-3 (Ref.eq),,,,,,,,,,6.000,R,ugm-3 (BAM),,,
02-01-2022,09:00,12.561,R,ugm-3 (Ref.eq),,,,,,,,,,8.000,R,ugm-3 (BAM),,,
02-01-2022,10:00,9.662,R,ugm-3 (Ref.eq),,,,,,,,,,7.000,R,ugm-3 (BAM),,,
02-01-2022,11:00,8.696,R,ugm-3 (Ref.eq),,,,,,,,,,6.000,R,ugm-3 (BAM),,,
02-01-2022,12:00,9.662,R,ugm-3 (Ref.eq),,,,,,,,,,5.000,R,ugm-3 (BAM),,,
02-01-2022,13:00,10.628,R,ugm-3 (Ref.eq),,,,,,,,,,7.000,R,ugm-3 (BAM),,,
02-01-2022,14:00,9.662,R,ugm-3 (Ref.eq),,,,,,,,,,7.000,R,ugm-3 (BAM),,,
02-01-2022,15:00,12.561,R,ugm-3 (Ref.eq),,,,,,,,,,7.000,R,ugm-3 (BAM),,,
02-01-2022,16:00,13.527,R,ugm-3 (Ref.eq),,,,,,,,,,6.000,R,ugm-3 (BAM),,,
02-01-2022,17:00,10.628,R,ugm-3 (Ref.eq),,,,,,,,,,9.000,R,ugm-3 (BAM),,,
02-01-2022,18:00,9.662,R,ugm-3 (Ref.eq),,,,,,,,,,7.000,R,ugm-3 (BAM),,,
02-01-2022,19:00,8.696,R,ugm-3 (Ref.eq),,,,,,,,,,6.000,R,ugm-3 (BAM),,,
02-01-2022,20:00,5.797,R,ugm-3 (Ref.eq),,,,,,,,,,7.000,R,ugm-3 (BAM),,,
02-01-2022,21:00,5.797,R,ugm-3 (Ref.eq),,,,,,,,,,9.000,R,ugm-3 (BAM),,,
02-01-2022,22:00,11.594,R,ugm-3 (Ref.eq),,,,,,,,,,9.000,R,ugm-3 (BAM),,,
02-01-2022,23:00,20.290,R,ugm-3 (Ref.eq),,,,,,,,,,6.000,R,ugm-3 (BAM),,,
02-01-2022,24:00,11.594,R,ugm-3 (Ref.eq),,,,,,,,,,10.000,R,ugm-3 (BAM),,,
03-01-2022,01:00,12.561,R,ugm-3 (Ref.eq),,,,,,,,,,12.000,R,ugm-3 (BAM),,,
03-01-2022,02:00,8.696,R,ugm-3 (Ref.eq),,,,,,,,,,8.000,R,ugm-3 (BAM),,,
03-01-2022,03:00,5.797,R,ugm-3 (Ref.eq),,,,,,,,,,4.000,R,ugm-3 (BAM),,,
03-01-2022,04:00,7.730,R,ugm-3 (Ref.eq),,,,,,,,,,6.000,R,ugm-3 (BAM),,,
03-01-2022,05:00,7.730,R,ugm-3 (Ref.eq),,,,,,,,,,5.000,R,ugm-3 (BAM),,,
03-01-2022,06:00,7.730,R,ugm-3 (Ref.eq),,,,,,,,,,3.000,R,ugm-3 (BAM),,,
03-01-2022,07:00,4.831,R,ugm-3 (Ref.eq),,,,,,,,,,5.000,R,ugm-3 (BAM),,,
03-01-2022,08:00,3.865,R,ugm-3 (Ref.eq),,,,,,,,,,6.000,R,ugm-3 (BAM),,,
03-01-2022,09:00,8.696,R,ugm-3 (Ref.eq),,,,,,,,,,8.000,R,ugm-3 (BAM),,,
03-01-2022,10:00,4.831,R,ugm-3 (Ref.eq),,,,,,,,,,6.000,R,ugm-3 (BAM),,,
03-01-2022,11:00,0.966,R,ugm-3 (Ref.eq),,,,,,,,,,4.000,R,ugm-3 (BAM),,,
03-01-2022,12:00,1.932,R,ugm-3 (Ref.eq),,,,,,,,,,4.000,R,ugm-3 (BAM),,,
03-01-2022,13:00,3.865,R,ugm-3 (Ref.eq),,,,,,,,,,8.000,R,ugm-3 (BAM),,,
03-01-2022,14:00,1.932,R,ugm-3 (Ref.eq),,,,,,,,,,6.000,R,ugm-3 (BAM),,,
03-01-2022,15:00,3.865,R,ugm-3 (Ref.eq),,,,,,,,,,10.000,R,ugm-3 (BAM),,,
03-01-2022,16:00,4.831,R,ugm-3 (Ref.eq),,,,,,,,,,9.000,R,ugm-3 (BAM),,,
03-01-2022,17:00,3.865,R,ugm-3 (Ref.eq),,,,,,,,,,5.000,R,ugm-3 (BAM),,,
03-01-2022,18:00,3.865,R,ugm-3 (Ref.eq),,,,,,,,,,2.000,R,ugm-3 (BAM),,,
03-01-2022,19:00,7.730,R,ugm-3 (Ref.eq),,,,,,,,,,5.000,R,ugm-3 (BAM),,,
03-01-2022,20:00,7.730,R,ugm-3 (Ref.eq),,,,,,,,,,9.000,R,ugm-3 (BAM),,,
03-01-2022,21:00,6.763,R,ugm-3 (Ref.eq),,,,,,,,,,9.000,R,ugm-3 (BAM),,,
03-01-2022,22:00,7.730,R,ugm-3 (Ref.eq),,,,,,,,,,7.000,R,ugm-3 (BAM),,,
03-01-2022,23:00,5.797,R,ugm-3 (Ref.eq),,,,,,,,,,8.000,R,ugm-3 (BAM),,,
03-01-2022,24:00,5.797,R,ugm-3 (Ref.eq),,,,,,,,,,7.000,R,ugm-3 (BAM),,,
04-01-2022,01:00,6.763,R,ugm-3 (Ref.eq),,,,,,,,,,7.000,R,ugm-3 (BAM),,,
04-01-2022,02:00,8.696,R,ugm-3 (Ref.eq),,,,,,,,,,6.000,R,ugm-3 (BAM),,,
04-01-2022,03:00,5.797,R,ugm-3 (Ref.eq),,,,,,,,,,6.000,R,ugm-3 (BAM),,,
04-01-2022,04:00,5.797,R,ugm-3 (Ref.eq),,,,,,,,,,8.000,R,ugm-3 (BAM),,,
04-01-2022,05:00,4.831,R,ugm-3 (Ref.eq),,,,,,,,,,7.000,R,ugm-3 (BAM),,,
04-01-2022,06:00,6.763,R,ugm-3 (Ref.eq),,,,,,,,,,7.000,R,ugm-3 (BAM),,,
04-01-2022,07:00,7.730,R,ugm-3 (Ref.eq),,,,,,,,,,5.000,R,ugm-3 (BAM),,,
04-01-2022,08:00,8.696,R,ugm-3 (Ref.eq),,,,,,,,,,6.000,R,ugm-3 (BAM),,,
04-01-2022,09:00,9.662,R,ugm-3 (Ref.eq),,,,,,,,,,6.000,R,ugm-3 (BAM),,,
04-01-2022,10:00,9.662,R,ugm-3 (Ref.eq),,,,,,,,,,7.000,R,ugm-3 (BAM),,,
04-01-2022,11:00,8.696,R,ugm-3 (Ref.eq),,,,,,,,,,5.000,R,ugm-3 (BAM),,,
04-01-2022,12:00,9.662,R,ugm-3 (Ref.eq),,,,,,,,,,4.000,R,ugm-3 (BAM),,,
04-01-2022,13:00,11.594,R,ugm-3 (Ref.eq),,,,,,,,,,5.000,R,ugm-3 (BAM),,,
04-01-2022,14:00,15.459,R,ugm-3 (Ref.eq),,,,,,,,,,8.000,R,ugm-3 (BAM),,,
04-01-2022,15:00,12.561,R,ugm-3 (Ref.eq),,,,,,,,,,10.000,R,ugm-3 (BAM),,,
04-01-2022,16:00,17.392,R,ugm-3 (Ref.eq),,,,,,,,,,10.000,R,ugm-3 (BAM),,,
04-01-2022,17:00,15.459,R,ugm-3 (Ref.eq),,,,,,,,,,6.000,R,ugm-3 (BAM),,,
04-01-2022,18:00,11.594,R,ugm-3 (Ref.eq),,,,,,,,,,5.000,R,ugm-3 (BAM),,,
04-01-2022,19:00,9.662,R,ugm-3 (Ref.eq),,,,,,,,,,6.000,R,ugm-3 (BAM),,,
04-01-2022,20:00,9.662,R,ugm-3 (Ref.eq),,,,,,,,,,6.000,R,ugm-3 (BAM),,,
04-01-2022,21:00,6.763,R,ugm-3 (Ref.eq),,,,,,,,,,9.000,R,ugm-3 (BAM),,,
04-01-2022,22:00,10.628,R,ugm-3 (Ref.eq),,,,,,,,,,8.000,R,ugm-3 (BAM),,,
04-01-2022,23:00,8.696,R,ugm-3 (Ref.eq),,,,,,,,,,9.000,R,ugm-3 (BAM),,,
04-01-2022,24:00,5.797,R,ugm-3 (Ref.eq),,,,,,,,,,11.000,R,ugm-3 (BAM),,,
05-01-2022,01:00,8.696,R,ugm-3 (Ref.eq),,,,,,,,,,8.000,R,ugm-3 (BAM),,,
05-01-2022,02:00,5.797,R,ugm-3 (Ref.eq),,,,,,,,,,5.000,R,ugm-3 (BAM),,,
05-01-2022,03:00,4.831,R,ugm-3 (Ref.eq),,,,,,,,,,5.000,R,ugm-3 (BAM),,,
05-01-2022,04:00,4.831,R,ugm-3 (Ref.eq),,,,,,,,,,6.000,R,ugm-3 (BAM),,,
05-01-2022,05:00,4.831,R,ugm-3 (Ref.eq),,,,,,,,,,9.000,R,ugm-3 (BAM),,,
05-01-2022,06:00,7.730,R,ugm-3 (Ref.eq),,,,,,,,,,8.000,R,ugm-3 (BAM),,,
05-01-2022,07:00,5.797,R,ugm-3 (Ref.eq),,,,,,,,,,6.000,R,ugm-3 (BAM),,,
05-01-2022,08:00,7.730,R,ugm-3 (Ref.eq),,,,,,,,,,6.000,R,ugm-3 (BAM),,,
05-01-2022,09:00,8.696,R,ugm-3 (Ref.eq),,,,,,,,,,6.000,R,ugm-3 (BAM),,,
05-01-2022,10:00,10.628,R,ugm-3 (Ref.eq),,,,,,,,,,7.000,R,ugm-3 (BAM),,,
05-01-2022,11:00,11.594,R,ugm-3 (Ref.eq),,,,,,,,,,7.000,R,ugm-3 (BAM),,,
05-01-2022,12:00,11.594,R,ugm-3 (Ref.eq),,,,,,,,,,5.000,R,ugm-3 (BAM),,,
05-01-2022,13:00,11.594,R,ugm-3 (Ref.eq),,,,,,,,,,6.000,R,ugm-3 (BAM),,,
05-01-2022,14:00,13.527,R,ugm-3 (Ref.eq),,,,,,,,,,8.000,R,ugm-3 (BAM),,,
05-01-2022,15:00,16.425,R,ugm-3 (Ref.eq),,,,,,,,,,7.000,R,ugm-3 (BAM),,,
05-01-2022,16:00,14.493,R,ugm-3 (Ref.eq),,,,,,,,,,6.000,R,ugm-3 (BAM),,,
05-01-2022,17:00,15.459,R,ugm-3 (Ref.eq),,,,,,,,,,7.000,R,ugm-3 (BAM),,,
05-01-2022,18:00,18.358,R,ugm-3 (Ref.eq),,,,,,,,,,9.000,R,ugm-3 (BAM),,,
05-01-2022,19:00,18.358,R,ugm-3 (Ref.eq),,,,,,,,,,13.000,R,ugm-3 (BAM),,,
05-01-2022,20:00,12.561,R,ugm-3 (Ref.eq),,,,,,,,,,12.000,R,ugm-3 (BAM),,,
05-01-2022,21:00,19.324,R,ugm-3 (Ref.eq),,,,,,,,,,11.000,R,ugm-3 (BAM),,,
05-01-2022,22:00,20.290,R,ugm-3 (Ref.eq),,,,,,,,,,10.000,R,ugm-3 (BAM),,,
05-01-2022,23:00,17.392,R,ugm-3 (Ref.eq),,,,,,,,,,11.000,R,ugm-3 (BAM),,,
05-01-2022,24:00,21.256,R,ugm-3 (Ref.eq),,,,,,,,,,16.000,R,ugm-3 (BAM),,,
06-01-2022,01:00,8.696,R,ugm-3 (Ref.eq),,,,,,,,,,9.000,R,ugm-3 (BAM),,,
06-01-2022,02:00,7.730,R,ugm-3 (Ref.eq),,,,,,,,,,9.000,R,ugm-3 (BAM),,,
06-01-2022,03:00,9.662,R,ugm-3 (Ref.eq),,,,,,,,,,8.000,R,ugm-3 (BAM),,,
06-01-2022,04:00,10.628,R,ugm-3 (Ref.eq),,,,,,,,,,9.000,R,ugm-3 (BAM),,,
06-01-2022,05:00,7.730,R,ugm-3 (Ref.eq),,,,,,,,,,7.000,R,ugm-3 (BAM),,,
06-01-2022,06:00,5.797,R,ugm-3 (Ref.eq),,,,,,,,,,5.000,R,ugm-3 (BAM),,,
06-01-2022,07:00,4.831,R,ugm-3 (Ref.eq),,,,,,,,,,4.000,R,ugm-3 (BAM),,,
06-01-2022,08:00,7.730,R,ugm-3 (Ref.eq),,,,,,,,,,6.000,R,ugm-3 (BAM),,,
06-01-2022,09:00,8.696,R,ugm-3 (Ref.eq),,,,,,,,,,5.000,R,ugm-3 (BAM),,,
06-01-2022,10:00,8.696,R,ugm-3 (Ref.eq),,,,,,,,,,3.000,R,ugm-3 (BAM),,,
06-01-2022,11:00,5.797,R,ugm-3 (Ref.eq),,,,,,,,,,3.000,R,ugm-3 (BAM),,,
06-01-2022,12:00,0.966,R,ugm-3 (Ref.eq),,,,,,,,,,3.000,R,ugm-3 (BAM),,,
06-01-2022,13:00,0.966,R,ugm-3 (Ref.eq),,,,,,,,,,2.000,R,ugm-3 (BAM),,,
06-01-2022,14:00,,,,,,,,,,,,,,,,,,
06-01-2022,15:00,2.899,R,ugm-3 (Ref.eq),,,,,,,,,,,,,,,
06-01-2022,16:00,1.932,R,ugm-3 (Ref.eq),,,,,,,,,,,,,,,
06-01-2022,17:00,1.932,R,ugm-3 (Ref.eq),,,,,,,,,,2.000,R,ugm-3 (BAM),,,
06-01-2022,18:00,2.899,R,ugm-3 (Ref.eq),,,,,,,,,,5.000,R,ugm-3 (BAM),,,
06-01-2022,19:00,1.932,R,ugm-3 (Ref.eq),,,,,,,,,,5.000,R,ugm-3 (BAM),,,
06-01-2022,20:00,3.865,R,ugm-3 (Ref.eq),,,,,,,,,,2.000,R,ugm-3 (BAM),,,
06-01-2022,21:00,5.797,R,ugm-3 (Ref.eq),,,,,,,,,,3.000,R,ugm-3 (BAM),,,
06-01-2022,22:00,3.865,R,ugm-3 (Ref.eq),,,,,,,,,,3.000,R,ugm-3 (BAM),,,
06-01-2022,23:00,4.831,R,ugm-3 (Ref.eq),,,,,,,,,,3.000,R,ugm-3 (BAM),,,
06-01-2022,24:00,3.865,R,ugm-3 (Ref.eq),,,,,,,,,,5.000,R,ugm-3 (BAM),,,
07-01-2022,01:00,-1.932,R,ugm-3 (Ref.eq),,,,,,,,,,3.000,R,ugm-3 (BAM),,,
07-01-2022,02:00,-2.899,R,ugm-3 (Ref.eq),,,,,,,,,,1.000,R,ugm-3 (BAM),,,
07-01-2022,03:00,-3.865,R,ugm-3 (Ref.eq),,,,,,,,,,2.000,R,ugm-3 (BAM),,,
07-01-2022,04:00,-2.899,R,ugm-3 (Ref.eq),,,,,,,,,,5.000,R,ugm-3 (BAM),,,
07-01-2022,05:00,-0.966,R,ugm-3 (Ref.eq),,,,,,,,,,6.000,R,ugm-3 (BAM),,,
07-01-2022,06:00,-1.932,R,ugm-3 (Ref.eq),,,,,,,,,,6.000,R,ugm-3 (BAM),,,
07-01-2022,07:00,2.899,R,ugm-3 (Ref.eq),,,,,,,,,,4.000,R,ugm-3 (BAM),,,
07-01-2022,08:00,2.899,R,ugm-3 (Ref.eq),,,,,,,,,,2.000,R,ugm-3 (BAM),,,
07-01-2022,09:00,1.932,R,ugm-3 (Ref.eq),,,,,,,,,,4.000,R,ugm-3 (BAM),,,
07-01-2022,10:00,2.899,R,ugm-3 (Ref.eq),,,,,,,,,,4.000,R,ugm-3 (BAM),,,
07-01-2022,11:00,4.831,R,ugm-3 (Ref.eq),,,,,,,,,,6.000,R,ugm-3 (BAM),,,
07-01-2022,12:00,5.797,R,ugm-3 (Ref.eq),,,,,,,,,,5.000,R,ugm-3 (BAM),,,
07-01-2022,13:00,2.899,R,ugm-3 (Ref.eq),,,,,,,,,,5.000,R,ugm-3 (BAM),,,
07-01-2022,14:00,3.865,R,ugm-3 (Ref.eq),,,,,,,,,,4.000,R,ugm-3 (BAM),,,
07-01-2022,15:00,2.899,R,ugm-3 (Ref.eq),,,,,,,,,,5.000,R,ugm-3 (BAM),,,
07-01-2022,16:00,1.932,R,ugm-3 (Ref.eq),,,,,,,,,,6.000,R,ugm-3 (BAM),,,
07-01-2022,17:00,4.831,R,ugm-3 (Ref.eq),,,,,,,,,,8.000,R,ugm-3 (BAM),,,
07-01-2022,18:00,6.763,R,ugm-3 (Ref.eq),,,,,,,,,,8.000,R,ugm-3 (BAM),,,
07-01-2022,19:00,7.730,R,ugm-3 (Ref.eq),,,,,,,,,,7.000,R,ugm-3 (BAM),,,
07-01-2022,20:00,6.763,R,ugm-3 (Ref.eq),,,,,,,,,,6.000,R,ugm-3 (BAM),,,
07-01-2022,21:00,6.763,R,ugm-3 (Ref.eq),,,,,,,,,,6.000,R,ugm-3 (BAM),,,
07-01-2022,22:00,5.797,R,ugm-3 (Ref.eq),,,,,,,,,,7.000,R,ugm-3 (BAM),,,
07-01-2022,23:00,2.899,R,ugm-3 (Ref.eq),,,,,,,,,,5.000,R,ugm-3 (BAM),,,
07-01-2022,24:00,5.797,R,ugm-3 (Ref.eq),,,,,,,,,,3.000,R,ugm-3 (BAM),,,
08-01-2022,01:00,7.730,R,ugm-3 (Ref.eq),,,,,,,,,,11.000,R,ugm-3 (BAM),,,
08-01-2022,02:00,4.831,R,ugm-3 (Ref.eq),,,,,,,,,,6.000,R,ugm-3 (BAM),,,
08-01-2022,03:00,5.797,R,ugm-3 (Ref.eq),,,,,,,,,,2.000,R,ugm-3 (BAM),,,
08-01-2022,04:00,6.763,R,ugm-3 (Ref.eq),,,,,,,,,,7.000,R,ugm-3 (BAM),,,
08-01-2022,05:00,3.865,R,ugm-3 (Ref.eq),,,,,,,,,,5.000,R,ugm-3 (BAM),,,
08-01-2022,06:00,0.000,R,ugm-3 (Ref.eq),,,,,,,,,,2.000,R,ugm-3 (BAM),,,
08-01-2022,07:00,-1.932,R,ugm-3 (Ref.eq),,,,,,,,,,3.000,R,ugm-3 (BAM),,,
08-01-2022,08:00,-0.966,R,ugm-3 (Ref.eq),,,,,,,,,,2.000,R,ugm-3 (BAM),,,
08-01-2022,09:00,1.932,R,ugm-3 (Ref.eq),,,,,,,,,,2.000,R,ugm-3 (BAM),,,
08-01-2022,10:00,4.831,R,ugm-3 (Ref.eq),,,,,,,,,,3.000,R,ugm-3 (BAM),,,
08-01-2022,11:00,24.155,R,ugm-3 (Ref.eq),,,,,,,,,,7.000,R,ugm-3 (BAM),,,
08-01-2022,12:00,25.121,R,ugm-3 (Ref.eq),,,,,,,,,,9.000,R,ugm-3 (BAM),,,
08-01-2022,13:00,16.425,R,ugm-3 (Ref.eq),,,,,,,,,,9.000,R,ugm-3 (BAM),,,
08-01-2022,14:00,17.392,R,ugm-3 (Ref.eq),,,,,,,,,,7.000,R,ugm-3 (BAM),,,
08-01-2022,15:00,7.730,R,ugm-3 (Ref.eq),,,,,,,,,,6.000,R,ugm-3 (BAM),,,
08-01-2022,16:00,4.831,R,ugm-3 (Ref.eq),,,,,,,,,,10.000,R,ugm-3 (BAM),,,
08-01-2022,17:00,8.696,R,ugm-3 (Ref.eq),,,,,,,,,,7.000,R,ugm-3 (BAM),,,
08-01-2022,18:00,9.662,R,ugm-3 (Ref.eq),,,,,,,,,,8.000,R,ugm-3 (BAM),,,
08-01-2022,19:00,7.730,R,ugm-3 (Ref.eq),,,,,,,,,,6.000,R,ugm-3 (BAM),,,
08-01-2022,20:00,7.730,R,ugm-3 (Ref.eq),,,,,,,,,,5.000,R,ugm-3 (BAM),,,
08-01-2022,21:00,6.763,R,ugm-3 (Ref.eq),,,,,,,,,,6.000,R,ugm-3 (BAM),,,
08-01-2022,22:00,4.831,R,ugm-3 (Ref.eq),,,,,,,,,,6.000,R,ugm-3 (BAM),,,
08-01-2022,23:00,4.831,R,ugm-3 (Ref.eq),,,,,,,,,,6.000,R,ugm-3 (BAM),,,
08-01-2022,24:00,2.899,R,ugm-3 (Ref.eq),,,,,,,,,,5.000,R,ugm-3 (BAM),,,
09-01-2022,01:00,2.899,R,ugm-3 (Ref.eq),,,,,,,,,,5.000,R,ugm-3 (BAM),,,
09-01-2022,02:00,4.831,R,ugm-3 (Ref.eq),,,,,,,,,,4.000,R,ugm-3 (BAM),,,
09-01-2022,03:00,4.831,R,ugm-3 (Ref.eq),,,,,,,,,,9.000,R,ugm-3 (BAM),,,
09-01-2022,04:00,4.831,R,ugm-3 (Ref.eq),,,,,,,,,,7.000,R,ugm-3 (BAM),,,
09-01-2022,05:00,5.797,R,ugm-3 (Ref.eq),,,,,,,,,,4.000,R,ugm-3 (BAM),,,
09-01-2022,06:00,8.696,R,ugm-3 (Ref.eq),,,,,,,,,,4.000,R,ugm-3 (BAM),,,
09-01-2022,07:00,5.797,R,ugm-3 (Ref.eq),,,,,,,,,,5.000,R,ugm-3 (BAM),,,
09-01-2022,08:00,3.865,R,ugm-3 (Ref.eq),,,,,,,,,,6.000,R,ugm-3 (BAM),,,
09-01-2022,09:00,4.831,R,ugm-3 (Ref.eq),,,,,,,,,,6.000,R,ugm-3 (BAM),,,
09-01-2022,10:00,4.831,R,ugm-3 (Ref.eq),,,,,,,,,,6.000,R,ugm-3 (BAM),,,
09-01-2022,11:00,5.797,R,ugm-3 (Ref.eq),,,,,,,,,,5.000,R,ugm-3 (BAM),,,
09-01-2022,12:00,3.865,R,ugm-3 (Ref.eq),,,,,,,,,,1.000,R,ugm-3 (BAM),,,
09-01-2022,13:00,2.899,R,ugm-3 (Ref.eq),,,,,,,,,,2.000,R,ugm-3 (BAM),,,
09-01-2022,14:00,1.932,R,ugm-3 (Ref.eq),,,,,,,,,,4.000,R,ugm-3 (BAM),,,
09-01-2022,15:00,3.865,R,ugm-3 (Ref.eq),,,,,,,,,,5.000,R,ugm-3 (BAM),,,
09-01-2022,16:00,3.865,R,ugm-3 (Ref.eq),,,,,,,,,,7.000,R,ugm-3 (BAM),,,
09-01-2022,17:00,6.763,R,ugm-3 (Ref.eq),,,,,,,,,,8.000,R,ugm-3 (BAM),,,
09-01-2022,18:00,16.425,R,ugm-3 (Ref.eq),,,,,,,,,,10.000,R,ugm-3 (BAM),,,
09-01-2022,19:00,17.392,R,ugm-3 (Ref.eq),,,,,,,,,,19.000,R,ugm-3 (BAM),,,
09-01-2022,20:00,14.493,R,ugm-3 (Ref.eq),,,,,,,,,,14.000,R,ugm-3 (BAM),,,
09-01-2022,21:00,16.425,R,ugm-3 (Ref.eq),,,,,,,,,,18.000,R,ugm-3 (BAM),,,
09-01-2022,22:00,14.493,R,ugm-3 (Ref.eq),,,,,,,,,,17.000,R,ugm-3 (BAM),,,
09-01-2022,23:00,13.527,R,ugm-3 (Ref.eq),,,,,,,,,,14.000,R,ugm-3 (BAM),,,
09-01-2022,24:00,11.594,R,ugm-3 (Ref.eq),,,,,,,,,,14.000,R,ugm-3 (BAM),,,
10-01-2022,01:00,14.493,R,ugm-3 (Ref.eq),,,,,,,,,,16.000,R,ugm-3 (BAM),,,
10-01-2022,02:00,19.324,R,ugm-3 (Ref.eq),,,,,,,,,,11.000,R,ugm-3 (BAM),,,
10-01-2022,03:00,15.459,R,ugm-3 (Ref.eq),,,,,,,,,,12.000,R,ugm-3 (BAM),,,
10-01-2022,04:00,11.594,R,ugm-3 (Ref.eq),,,,,,,,,,18.000,R,ugm-3 (BAM),,,
10-01-2022,05:00,16.425,R,ugm-3 (Ref.eq),,,,,,,,,,17.000,R,ugm-3 (BAM),,,
10-01-2022,06:00,16.425,R,ugm-3 (Ref.eq),,,,,,,,,,18.000,R,ugm-3 (BAM),,,
10-01-2022,07:00,18.358,R,ugm-3 (Ref.eq),,,,,,,,,,14.000,R,ugm-3 (BAM),,,
10-01-2022,08:00,14.493,R,ugm-3 (Ref.eq),,,,,,,,,,16.000,R,ugm-3 (BAM),,,
10-01-2022,09:00,19.324,R,ugm-3 (Ref.eq),,,,,,,,,,17.000,R,ugm-3 (BAM),,,
10-01-2022,10:00,17.392,R,ugm-3 (Ref.eq),,,,,,,,,,17.000,R,ugm-3 (BAM),,,
10-01-2022,11:00,19.324,R,ugm-3 (Ref.eq),,,,,,,,,,14.000,R,ugm-3 (BAM),,,
10-01-2022,12:00,19.324,R,ugm-3 (Ref.eq),,,,,,,,,,12.000,R,ugm-3 (BAM),,,
10-01-2022,13:00,1.932,R,ugm-3 (Ref.eq),,,,,,,,,,6.000,R,ugm-3 (BAM),,,
10-01-2022,14:00,3.865,R,ugm-3 (Ref.eq),,,,,,,,,,2.000,R,ugm-3 (BAM),,,
10-01-2022,15:00,2.899,R,ugm-3 (Ref.eq),,,,,,,,,,2.000,R,ugm-3 (BAM),,,
10-01-2022,16:00,1.932,R,ugm-3 (Ref.eq),,,,,,,,,,4.000,R,ugm-3 (BAM),,,
10-01-2022,17:00,0.966,R,ugm-3 (Ref.eq),,,,,,,,,,5.000,R,ugm-3 (BAM),,,
10-01-2022,18:00,1.932,R,ugm-3 (Ref.eq),,,,,,,,,,5.000,R,ugm-3 (BAM),,,
10-01-2022,19:00,1.932,R,ugm-3 (Ref.eq),,,,,,,,,,3.000,R,ugm-3 (BAM),,,
10-01-2022,20:00,-1.932,R,ugm-3 (Ref.eq),,,,,,,,,,3.000,R,ugm-3 (BAM),,,
10-01-2022,21:00,3.865,R,ugm-3 (Ref.eq),,,,,,,,,,6.000,R,ugm-3 (BAM),,,
10-01-2022,22:00,6.763,R,ugm-3 (Ref.eq),,,,,,,,,,6.000,R,ugm-3 (BAM),,,
10-01-2022,23:00,9.662,R,ugm-3 (Ref.eq),,,,,,,,,,4.000,R,ugm-3 (BAM),,,
10-01-2022,24:00,14.493,R,ugm-3 (Ref.eq),,,,,,,,,,7.000,R,ugm-3 (BAM),,,
11-01-2022,01:00,14.493,R,ugm-3 (Ref.eq),,,,,,,,,,11.000,R,ugm-3 (BAM),,,
11-01-2022,02:00,17.392,R,ugm-3 (Ref.eq),,,,,,,,,,7.000,R,ugm-3 (BAM),,,
11-01-2022,03:00,17.392,R,ugm-3 (Ref.eq),,,,,,,,,,5.000,R,ugm-3 (BAM),,,
11-01-2022,04:00,14.493,R,ugm-3 (Ref.eq),,,,,,,,,,5.000,R,ugm-3 (BAM),,,
11-01-2022,05:00,12.561,R,ugm-3 (Ref.eq),,,,,,,,,,4.000,R,ugm-3 (BAM),,,
11-01-2022,06:00,11.594,R,ugm-3 (Ref.eq),,,,,,,,,,5.000,R,ugm-3 (BAM),,,
11-01-2022,07:00,13.527,R,ugm-3 (Ref.eq),,,,,,,,,,8.000,R,ugm-3 (BAM),,,
11-01-2022,08:00,18.358,R,ugm-3 (Ref.eq),,,,,,,,,,9.000,R,ugm-3 (BAM),,,
11-01-2022,09:00,16.425,R,ugm-3 (Ref.eq),,,,,,,,,,6.000,R,ugm-3 (BAM),,,
11-01-2022,10:00,14.493,R,ugm-3 (Ref.eq),,,,,,,,,,7.000,R,ugm-3 (BAM),,,
11-01-2022,11:00,17.392,R,ugm-3 (Ref.eq),,,,,,,,,,9.000,R,ugm-3 (BAM),,,
11-01-2022,12:00,15.459,R,ugm-3 (Ref.eq),,,,,,,,,,7.000,R,ugm-3 (BAM),,,
11-01-2022,13:00,18.358,R,ugm-3 (Ref.eq),,,,,,,,,,10.000,R,ugm-3 (BAM),,,
11-01-2022,14:00,11.594,R,ugm-3 (Ref.eq),,,,,,,,,,7.000,R,ugm-3 (BAM),,,
11-01-2022,15:00,13.527,R,ugm-3 (Ref.eq),,,,,,,,,,9.000,R,ugm-3 (BAM),,,
11-01-2022,16:00,14.493,R,ugm-3 (Ref.eq),,,,,,,,,,9.000,R,ugm-3 (BAM),,,
11-01-2022,17:00,14.493,R,ugm-3 (Ref.eq),,,,,,,,,,8.000,R,ugm-3 (BAM),,,
11-01-2022,18:00,15.459,R,ugm-3 (Ref.eq),,,,,,,,,,6.000,R,ugm-3 (BAM),,,
11-01-2022,19:00,18.358,R,ugm-3 (Ref.eq),,,,,,,,,,7.000,R,ugm-3 (BAM),,,
11-01-2022,20:00,13.527,R,ugm-3 (Ref.eq),,,,,,,,,,8.000,R,ugm-3 (BAM),,,
11-01-2022,21:00,16.425,R,ugm-3 (Ref.eq),,,,,,,,,,7.000,R,ugm-3 (BAM),,,
11-01-2022,22:00,14.493,R,ugm-3 (Ref.eq),,,,,,,,,,7.000,R,ugm-3 (BAM),,,
11-01-2022,23:00,11.594,R,ugm-3 (Ref.eq),,,,,,,,,,8.000,R,ugm-3 (BAM),,,
11-01-2022,24:00,15.459,R,ugm-3 (Ref.eq),,,,,,,,,,8.000,R,ugm-3 (BAM),,,
12-01-2022,01:00,15.459,R,ugm-3 (Ref.eq),,,,,,,,,,8.000,R,ugm-3 (BAM),,,
12-01-2022,02:00,18.358,R,ugm-3 (Ref.eq),,,,,,,,,,6.000,R,ugm-3 (BAM),,,
12-01-2022,03:00,17.392,R,ugm-3 (Ref.eq),,,,,,,,,,5.000,R,ugm-3 (BAM),,,
12-01-2022,04:00,17.392,R,ugm-3 (Ref.eq),,,,,,,,,,8.000,R,ugm-3 (BAM),,,
12-01-2022,05:00,14.493,R,ugm-3 (Ref.eq),,,,,,,,,,6.000,R,ugm-3 (BAM),,,
12-01-2022,06:00,14.493,R,ugm-3 (Ref.eq),,,,,,,,,,5.000,R,ugm-3 (BAM),,,
12-01-2022,07:00,13.527,R,ugm-3 (Ref.eq),,,,,,,,,,7.000,R,ugm-3 (BAM),,,
12-01-2022,08:00,11.594,R,ugm-3 (Ref.eq),,,,,,,,,,6.000,R,ugm-3 (BAM),,,
12-01-2022,09:00,7.730,R,ugm-3 (Ref.eq),,,,,,,,,,6.000,R,ugm-3 (BAM),,,
12-01-2022,10:00,12.561,R,ugm-3 (Ref.eq),,,,,,,,,,15.000,R,ugm-3 (BAM),,,
12-01-2022,11:00,9.662,R,ugm-3 (Ref.eq),,,,,,,,,,14.000,R,ugm-3 (BAM),,,
12-01-2022,12:00,,,,,,,,,,,,,,,,,,
12-01-2022,13:00,,,,,,,,,,,,,,,,,,
12-01-2022,14:00,,,,,,,,,,,,,,,,1.37526,R,ugm-3
12-01-2022,15:00,,,,,,,,,,,,,,,,1.00019,R,ugm-3
12-01-2022,16:00,,,,,,,,,,,,,,,,1.12521,R,ugm-3
12-01-2022,17:00,,,,,,,,,,,,,,,,1.06270,R,ugm-3
12-01-2022,18:00,,,,,,,,,,,,,,,,1.12521,R,ugm-3
12-01-2022,19:00,,,,,,,,,,,,,,,,1.18773,R,ugm-3
12-01-2022,20:00,,,,,,,,,,,,,,,,0.87517,R,ugm-3
12-01-2022,21:00,,,,,,,,,,,,,,,,0.87517,R,ugm-3
12-01-2022,22:00,,,,,,,,,,,,,,,,1.18773,R,ugm-3
12-01-2022,23:00,,,,,,,,,,,,,,,,0.68763,R,ugm-3
12-01-2022,24:00,,,,,,,,,,,,,,,,1.00019,R,ugm-3
13-01-2022,01:00,,,,,,,,,,,,,,,,0.75463,R,ugm-3
13-01-2022,02:00,,,,,,,,,,,,,,,,0.75463,R,ugm-3
13-01-2022,03:00,,,,,,,,,,,,,,,,0.31443,R,ugm-3
13-01-2022,04:00,,,,,,,,,,,,,,,,0.56597,R,ugm-3
13-01-2022,05:00,,,,,,,,,,,,,,,,0.81751,R,ugm-3
13-01-2022,06:00,,,,,,,,,,,,,,,,0.81751,R,ugm-3
13-01-2022,07:00,,,,,,,,,,,,,,,,0.44020,R,ugm-3
13-01-2022,08:00,,,,,,,,,,,,,,,,0.62886,R,ugm-3
13-01-2022,09:00,,,,,,,,,,,,,,,,0.31443,R,ugm-3
13-01-2022,10:00,,,,,,,,,,,,,,,,0.44020,R,ugm-3
13-01-2022,11:00,,,,,,,,,,,,,,,,0.69174,R,ugm-3
13-01-2022,12:00,,,,,,,,,,,,,,,,0.62886,R,ugm-3
13-01-2022,13:00,,,,,,,,,,,,,,,,0.56597,R,ugm-3
13-01-2022,14:00,,,,,,,,,,,,,,,,0.37732,R,ugm-3
13-01-2022,15:00,,,,,,,,,,,,,,,,0.31443,R,ugm-3
13-01-2022,16:00,,,,,,,,,,,,,,,,0.50309,R,ugm-3
13-01-2022,17:00,,,,,,,,,,,,,,,,0.50309,R,ugm-3
13-01-2022,18:00,,,,,,,,,,,,,,,,0.75463,R,ugm-3
13-01-2022,19:00,,,,,,,,,,,,,,,,0.37732,R,ugm-3
13-01-2022,20:00,,,,,,,,,,,,,,,,0.56597,R,ugm-3
13-01-2022,21:00,,,,,,,,,,,,,,,,0.62886,R,ugm-3
13-01-2022,22:00,,,,,,,,,,,,,,,,0.69174,R,ugm-3
13-01-2022,23:00,,,,,,,,,,,,,,,,0.81751,R,ugm-3
13-01-2022,24:00,,,,,,,,,,,,,,,,0.62886,R,ugm-3
14-01-2022,01:00,,,,,,,,,,,,,,,,0.42173,R,ugm-3
14-01-2022,02:00,,,,,,,,,,,,,,,,0.42173,R,ugm-3
14-01-2022,03:00,,,,,,,,,,,,,,,,0.50608,R,ugm-3
14-01-2022,04:00,,,,,,,,,,,,,,,,0.75912,R,ugm-3
14-01-2022,05:00,,,,,,,,,,,,,,,,0.50608,R,ugm-3
14-01-2022,06:00,,,,,,,,,,,,,,,,0.44282,R,ugm-3
14-01-2022,07:00,,,,,,,,,,,,,,,,0.69586,R,ugm-3
14-01-2022,08:00,,,,,,,,,,,,,,,,0.50608,R,ugm-3
14-01-2022,09:00,,,,,,,,,,,,,,,,0.50608,R,ugm-3
14-01-2022,10:00,,,,,,,,,,,,,,,,0.37956,R,ugm-3
14-01-2022,11:00,,,,,,,,,,,,,,,,0.37956,R,ugm-3
14-01-2022,12:00,,,,,,,,,,,,,,,,0.44282,R,ugm-3
14-01-2022,13:00,,,,,,,,,,,,,,,,0.44282,R,ugm-3
14-01-2022,14:00,,,,,,,,,,,,,,,,0.56934,R,ugm-3
14-01-2022,15:00,,,,,,,,,,,,,,,,0.63260,R,ugm-3
14-01-2022,16:00,,,,,,,,,,,,,,,,0.82238,R,ugm-3
14-01-2022,17:00,,,,,,,,,,,,,,,,0.75912,R,ugm-3
14-01-2022,18:00,,,,,,,,,,,,,,,,0.69586,R,ugm-3
14-01-2022,19:00,,,,,,,,,,,,,,,,0.88564,R,ugm-3
14-01-2022,20:00,,,,,,,,,,,,,,,,0.50608,R,ugm-3
14-01-2022,21:00,,,,,,,,,,,,,,,,0.18978,R,ugm-3
14-01-2022,22:00,,,,,,,,,,,,,,,,0.88564,R,ugm-3
14-01-2022,23:00,,,,,,,,,,,,,,,,0.50608,R,ugm-3
14-01-2022,24:00,,,,,,,,,,,,,,,,0.82238,R,ugm-3
15-01-2022,01:00,,,,,,,,,,,,,,,,0.59392,R,ugm-3
15-01-2022,02:00,,,,,,,,,,,,,,,,0.59392,R,ugm-3
15-01-2022,03:00,,,,,,,,,,,,,,,,0.44544,R,ugm-3
15-01-2022,04:00,,,,,,,,,,,,,,,,0.31817,R,ugm-3
15-01-2022,05:00,,,,,,,,,,,,,,,,0.31817,R,ugm-3
15-01-2022,06:00,,,,,,,,,,,,,,,,0.50907,R,ugm-3
15-01-2022,07:00,,,,,,,,,,,,,,,,0.25453,R,ugm-3
15-01-2022,08:00,,,,,,,,,,,,,,,,0.19090,R,ugm-3
15-01-2022,09:00,,,,,,,,,,,,,,,,0.63634,R,ugm-3
15-01-2022,10:00,,,,,,,,,,,,,,,,0.31817,R,ugm-3
15-01-2022,11:00,,,,,,,,,,,,,,,,0.69997,R,ugm-3
15-01-2022,12:00,,,,,,,,,,,,,,,,0.19090,R,ugm-3
15-01-2022,13:00,,,,,,,,,,,,,,,,0.38180,R,ugm-3
15-01-2022,14:00,,,,,,,,,,,,,,,,0.82724,R,ugm-3
15-01-2022,15:00,,,,,,,,,,,,,,,,0.89087,R,ugm-3
15-01-2022,16:00,,,,,,,,,,,,,,,,0.50907,R,ugm-3